TimeIST,TemperatureF,Dew PointF,Humidity,Sea Level PressureIn,VisibilityMPH,Wind Direction,Wind SpeedMPH,Gust SpeedMPH,PrecipitationIn,Events,Conditions,WindDirDegrees,DateUTC
12:00 AM,71.6,68.0,88,29.83,2.5,Calm,Calm,-,N/A,,Haze,0,2012-10-06 18:30:00
1:00 AM,71.6,68.0,88,29.83,2.5,Calm,Calm,-,N/A,,Mist,0,2012-10-06 19:30:00
2:00 AM,71.6,68.0,88,29.80,2.5,Calm,Calm,-,N/A,,Mist,0,2012-10-06 20:30:00
3:00 AM,-9999,-9999,N/A,29.80,2.5,Calm,Calm,-,N/A,,Mist,0,2012-10-06 21:30:00
4:00 AM,69.8,64.4,83,29.80,2.2,Calm,Calm,-,N/A,,Mist,0,2012-10-06 22:30:00
5:30 AM,68.0,66.2,94,29.80,1.9,Calm,Calm,-,N/A,,Mist,0,2012-10-07 00:00:00
6:00 AM,68.0,66.2,94,29.83,1.6,Calm,Calm,-,N/A,,Mist,0,2012-10-07 00:30:00
6:30 AM,68.0,64.4,88,29.83,1.6,Calm,Calm,-,N/A,,Mist,0,2012-10-07 01:00:00
7:00 AM,68.0,64.4,88,29.86,1.6,Calm,Calm,-,N/A,,Mist,0,2012-10-07 01:30:00
7:30 AM,69.8,66.2,88,29.86,1.6,Calm,Calm,-,N/A,,Mist,0,2012-10-07 02:00:00
8:30 AM,77,72,79,29.88,1,,2.3,,,,Mist,,2012-10-07 03:00:00
8:30 AM,77.0,71.6,83,29.86,1.9,Variable,2.3,-,N/A,,Mist,0,2012-10-07 03:00:00
9:00 AM,80.6,71.6,74,29.89,1.9,Variable,2.3,-,N/A,,Mist,0,2012-10-07 03:30:00
9:30 AM,82.4,71.6,70,29.89,1.9,Variable,2.3,-,N/A,,Mist,0,2012-10-07 04:00:00
10:00 AM,84.2,71.6,66,29.89,1.9,Variable,2.3,-,N/A,,Mist,0,2012-10-07 04:30:00
10:30 AM,86.0,73.4,66,29.89,2.5,Variable,2.3,-,N/A,,Haze,0,2012-10-07 05:00:00
11:00 AM,87.8,73.4,62,29.89,2.5,Variable,2.3,-,N/A,,Haze,0,2012-10-07 05:30:00
11:30 AM,89.6,71.6,55,29.86,2.5,Variable,2.3,-,N/A,,Haze,0,2012-10-07 06:00:00
12:00 PM,91.4,71.6,52,29.86,2.5,Variable,2.3,-,N/A,,Haze,0,2012-10-07 06:30:00
12:30 PM,91.4,68.0,46,29.86,2.8,Variable,2.3,-,N/A,,Haze,0,2012-10-07 07:00:00
1:30 PM,91.4,68.0,46,29.80,3.1,NW,3.5,-,N/A,,Haze,320,2012-10-07 08:00:00
2:00 PM,93.2,69.8,46,29.80,3.1,NW,3.5,-,N/A,,Haze,320,2012-10-07 08:30:00
3:00 PM,95.0,71.6,47,29.77,3.1,NW,3.5,-,N/A,,Haze,320,2012-10-07 09:30:00
4:00 PM,91.4,69.8,49,29.77,3.1,Variable,2.3,-,N/A,,Haze,0,2012-10-07 10:30:00
5:00 PM,89.6,68.0,49,29.77,3.1,NW,3.5,-,N/A,,Haze,320,2012-10-07 11:30:00
5:30 PM,89.6,68.0,49,29.77,2.8,NW,3.5,-,N/A,,Haze,320,2012-10-07 12:00:00
6:30 PM,86.0,66.2,51,29.77,2.8,Variable,2.3,-,N/A,,Haze,0,2012-10-07 13:00:00
7:30 PM,80.6,66.2,61,29.80,2.5,Variable,2.3,-,N/A,,Haze,0,2012-10-07 14:00:00
8:00 PM,78.8,66.2,65,29.80,2.5,Variable,2.3,-,N/A,,Haze,0,2012-10-07 14:30:00
8:30 PM,77.0,68.0,74,29.80,2.5,Calm,Calm,-,N/A,,Haze,0,2012-10-07 15:00:00
9:00 PM,77.0,68.0,74,29.83,2.5,Calm,Calm,-,N/A,,Haze,0,2012-10-07 15:30:00
10:00 PM,75.2,68.0,78,29.83,2.5,Calm,Calm,-,N/A,,Haze,0,2012-10-07 16:30:00
11:00 PM,75.2,66.2,73,29.83,2.5,Calm,Calm,-,N/A,,Haze,0,2012-10-07 17:30:00